Goodland, KS

3:22 AM MST on December 13, 2017 (GMT -0700)
Renner-Goodland Municipal

Weather History for KGLD - October, 2012

Change the Weather History Date:

Friday, October 26, 2012

  Actual Average Record
Temperature  
Mean Temperature 31 °F 48 °F  
Max Temperature 40 °F 62 °F 87 °F (1922)
Min Temperature 22 °F 34 °F 10 °F (1997)
Degree Days  
Heating Degree Days 34 17  
Month to date heating degree days 389 324  
Since 1 July heating degree days 465 448  
Cooling Degree Days 0 0  
Month to date cooling degree days 2 5  
Year to date cooling degree days 1338 938  
Moisture  
Dew Point 23 °F    
Average Humidity 71    
Maximum Humidity 92    
Minimum Humidity 50    
Precipitation  
Precipitation T in 0.04 in 1.17 in (2006)
Month to date precipitation 0.41 1.20  
Year to date precipitation 9.02 18.32  
Snow  
Snow T in 0.10 in - ()
Month to date snowfall 0.5 1.7  
Since 1 July snowfall 0.5 2.1  
Since 1 September snowfall 0.5 2.1  
Snow Depth 0.00 in    
Sea Level Pressure  
Sea Level Pressure 30.46 in    
Wind  
Wind Speed 5 mph (ENE)    
Max Wind Speed 13 mph    
Max Gust Speed 16 mph    
Visibility 10 miles    
Events      
T = Trace of Precipitation, MM = Missing Value Source: NWS Daily Summary

Daily Weather History Graph

Daily Weather History Graph

Search for Another Location

Airport or City:

Trip Planner

Search our weather history database for the weather conditions in past years. The results will help you decide how hot, cold, wet, or windy it might be!

Date:

Astronomy

Oct. 26, 2012 Rise Set
Actual Time 7:08 AM MDT 5:52 PM MDT
Civil Twilight 6:41 AM MDT 6:19 PM MDT
Nautical Twilight 6:09 AM MDT 6:50 PM MDT
Astronomical Twilight 5:38 AM MDT 7:22 PM MDT
Moon 4:08 PM MDT (10/26) 4:07 AM MDT (10/26)
Length of Visible Light 11h 38m
Length of Day
10h 43m
Waxing Gibbous, 91% of the Moon is Illuminated
Oct 26
Waxing Gibbous
Oct 29
Full
Nov 6
Last Quarter
Nov 13
New
Nov 20
First Quarter

Hourly Weather History & Observations

Time (MDT) Temp. Windchill Dew Point Humidity Pressure Visibility Wind Dir Wind Speed Gust Speed Precip Events Conditions
12:53 AM 28.9 °F 21.1 °F 25.0 °F 85% 30.38 in 10.0 mi East 8.1 mph - N/A   Partly Cloudy
1:53 AM 27.0 °F 18.7 °F 24.1 °F 89% 30.39 in 10.0 mi ENE 8.1 mph - N/A   Partly Cloudy
2:53 AM 26.1 °F 20.5 °F 24.1 °F 92% 30.41 in 10.0 mi ENE 4.6 mph - N/A   Clear
3:53 AM 26.1 °F 20.5 °F 24.1 °F 92% 30.43 in 10.0 mi ENE 4.6 mph - N/A   Overcast
4:31 AM 26.6 °F 22.6 °F 24.8 °F 93% 30.39 in 10.0 mi NE 3.5 mph - N/A   Overcast
4:44 AM 26.6 °F 19.1 °F 24.8 °F 93% 30.39 in 10.0 mi NE 6.9 mph - N/A   Overcast
4:53 AM 26.1 °F 17.6 °F 24.1 °F 92% 30.46 in 10.0 mi NE 8.1 mph - N/A   Overcast
5:06 AM 26.6 °F 21.2 °F 24.8 °F 93% 30.40 in 10.0 mi NE 4.6 mph - N/A   Overcast
5:38 AM 26.6 °F 19.1 °F 23.0 °F 86% 30.42 in 10.0 mi NE 6.9 mph - N/A   Overcast
5:45 AM 26.6 °F 20.0 °F 23.0 °F 86% 30.42 in 10.0 mi ENE 5.8 mph - N/A   Overcast
5:53 AM 26.1 °F 19.4 °F 23.0 °F 88% 30.50 in 10.0 mi ENE 5.8 mph - N/A   Overcast
6:53 AM 26.6 °F 21.2 °F 23.0 °F 86% 30.45 in 10.0 mi ENE 4.6 mph - N/A   Overcast
7:53 AM 27.0 °F 23.0 °F 23.0 °F 85% 30.56 in 10.0 mi East 3.5 mph - 0.00 in   Overcast
8:19 AM 26.6 °F - 21.2 °F 80% 30.47 in 10.0 mi Calm Calm - N/A   Overcast
8:53 AM 27.0 °F - 23.0 °F 85% 30.57 in 10.0 mi Calm Calm - N/A   Overcast
9:53 AM 30.0 °F - 23.0 °F 75% 30.57 in 10.0 mi Calm Calm - N/A   Mostly Cloudy
10:02 AM 30.2 °F - 24.8 °F 80% 30.49 in 10.0 mi Calm Calm - N/A   Mostly Cloudy
10:25 AM 30.2 °F 26.7 °F 24.8 °F 80% 30.50 in 10.0 mi ENE 3.5 mph - N/A   Mostly Cloudy
10:53 AM 33.1 °F - 24.1 °F 70% 30.57 in 10.0 mi Calm Calm - N/A   Scattered Clouds
11:17 AM 35.6 °F 30.7 °F 24.8 °F 65% 30.50 in 10.0 mi NNE 5.8 mph - N/A   Mostly Cloudy
11:32 AM 33.8 °F - 24.8 °F 70% 30.50 in 10.0 mi Calm Calm - N/A   Mostly Cloudy
11:43 AM 35.6 °F - 24.8 °F 65% 30.49 in 10.0 mi Calm Calm - N/A   Mostly Cloudy
11:53 AM 37.0 °F 34.5 °F 24.1 °F 59% 30.56 in 10.0 mi NW 3.5 mph - N/A   Mostly Cloudy
12:53 PM 37.0 °F - 24.1 °F 59% 30.54 in 10.0 mi Calm Calm - N/A   Overcast
1:26 PM 37.4 °F 34.9 °F 23.0 °F 56% 30.45 in 10.0 mi Variable 3.5 mph - N/A   Overcast
1:53 PM 37.9 °F 34.4 °F 23.0 °F 55% 30.50 in 10.0 mi North 4.6 mph - N/A   Overcast
2:53 PM 39.0 °F 36.8 °F 23.0 °F 53% 30.48 in 10.0 mi NW 3.5 mph - N/A   Overcast
3:53 PM 39.0 °F 36.8 °F 23.0 °F 53% 30.46 in 10.0 mi WSW 3.5 mph - N/A   Scattered Clouds
4:53 PM 37.9 °F 33.5 °F 23.0 °F 55% 30.44 in 10.0 mi West 5.8 mph - N/A   Mostly Cloudy
5:53 PM 35.1 °F 30.1 °F 23.0 °F 61% 30.44 in 10.0 mi WSW 5.8 mph - N/A   Scattered Clouds
6:53 PM 30.0 °F 22.4 °F 23.0 °F 75% 30.45 in 10.0 mi WSW 8.1 mph - N/A   Clear
7:53 PM 27.0 °F 20.5 °F 21.9 °F 81% 30.45 in 10.0 mi SW 5.8 mph - N/A   Clear
8:53 PM 24.1 °F 15.2 °F 19.9 °F 84% 30.45 in 10.0 mi South 8.1 mph - N/A   Clear
9:53 PM 24.8 °F 15.3 °F 19.4 °F 80% 30.34 in 10.0 mi South 9.2 mph - N/A   Clear
10:53 PM 24.1 °F 14.4 °F 19.9 °F 84% 30.40 in 10.0 mi South 9.2 mph - N/A   Clear
11:53 PM 25.0 °F 14.2 °F 21.0 °F 85% 30.37 in 10.0 mi South 11.5 mph - N/A   Clear